Hourly Data Report for October 13, 2014

All times are specified in Local Standard Time (LST). Add 1 hour to adjust for Daylight Saving Time where and when it is observed.

BATHURST A
NEW BRUNSWICK

47°37'47.000" N
65°44'20.000" W
58.80 m
8100505
71574
ZBF

Download Data

Hourly Data (October 2014)
Hourly Data Report for October 13, 2014
Temp Definition
°C
Dew Point Temp Definition
°C
Rel Hum Definition
%
Wind Dir Definition
10's deg

Wind Spd Definition
km/h
Visibility Definition
km
Stn Press Definition
kPa
Hmdx Definition


Wind Chill Definition


Weather Definition


TIME
00:00 Legend Double Dagger 1.9 -0.7 83 22 4 24.1 101.49     LegendNANA
01:00 Legend Double Dagger 1.8 -0.5 85 20 7 24.1 101.49     LegendNANA
02:00 Legend Double Dagger 0.6 -1.0 89 19 3 24.1 101.47     Clear
03:00 Legend Double Dagger -0.6 -1.6 93 24 4 24.1 101.49   -2 LegendNANA
04:00 Legend Double Dagger 5.8 0.8 70 29 12 24.1 101.52     LegendNANA
05:00 Legend Double Dagger 4.6 0.4 74 25 7 24.1 101.55     Clear
06:00 Legend Double Dagger 2.4 -0.2 83 22 8 24.1 101.56     LegendNANA
07:00 Legend Double Dagger 2.8 0.0 82 24 9 24.1 101.58     LegendNANA
08:00 Legend Double Dagger 7.2 1.3 66 25 14 24.1 101.59     Clear
09:00 Legend Double Dagger 9.8 2.0 58 26 18 24.1 101.57     LegendNANA
10:00 Legend Double Dagger 12.1 2.3 51 26 16 24.1 101.53     LegendNANA
11:00 Legend Double Dagger 13.9 2.5 46 24 19 24.1 101.50     Clear
12:00 Legend Double Dagger 15.8 2.7 41 25 19 24.1 101.46     LegendNANA
13:00 Legend Double Dagger 16.5 2.2 38 27 10 24.1 101.39     LegendNANA
14:00 Legend Double Dagger 18.0 0.3 30 24 14 24.1 101.32     Clear
15:00 Legend Double Dagger 18.7 -0.1 28 23 16 24.1 101.30     LegendNANA
16:00 Legend Double Dagger 18.4 -1.9 25 25 22 24.1 101.30     LegendNANA
17:00 Legend Double Dagger 16.2 -0.4 32 23 9 24.1 101.28     Clear
18:00 Legend Double Dagger 12.4 0.5 44 30 5 24.1 101.32     LegendNANA
19:00 Legend Double Dagger 7.3 1.4 66 24 4 24.1 101.35     LegendNANA
20:00 Legend Double Dagger 6.8 1.1 67 25 6 24.1 101.38     Clear
21:00 Legend Double Dagger 4.9 1.0 76 24 4 24.1 101.37     LegendNANA
22:00 Legend Double Dagger 3.5 0.7 82 21 6 24.1 101.37     LegendNANA
23:00 Legend Double Dagger 3.1 0.3 82 24 7 24.1 101.35     Clear

Notes on Data Quality.

Legend

  • E = Estimated
  • M = Missing
  • NA = Not Available
  • ‡ = Partner data that is not subject to review by the National Climate Archives
Date modified: